www.pogodaiklimat.ru

Погода и климат >> Архив погоды >> Кувейт >> Sabriyah


ПОГОДА в Sabriyah

  • Прогноз погоды в Sabriyah
  • Монитор погоды в Sabriyah
  • Климат города

АРХИВ ПОГОДЫ в Sabriyah

Время (UTC), дата Ветер
(напр.,м/с)
 
Видим.   Явления Облачность Т
(С)
Тd
(С)
f
(%)
Тe
(С)
Тes
(С)
Комфортность P
(гПа)
Po
(гПа)
Тmin
(С)
Tmax
(С)
R
(мм)
R24
(мм)
S
(см)
21 18.06 СЗ 7 13 км н/о +35.7 +4.4 14 +33 +33 жарко 1000.6 1001.0 +31.5 +46.4
00 19.06 С 7-8
{12}
14 км н/о +33.2 +6.6 19 +31 +31 жарко 1001.2 1001.0
03 19.06 СЗ 6-9
{9}
18 км н/о +32.3 +5.5 19 +30 +30 жарко 1002.1 1002.0
06 19.06 С 10-13
{13}
19 км н/о +39.7 +0.8 9 +36 +36 очень
жарко
1002.6 1003.0
09 19.06 С 10-15
{15}
18 км н/о +44.0 +1.4 7 +40 +40 очень
жарко
1002.4 1002.0
12 19.06 С 11-14
{17}
15 км н/о +44.9 +2.0 7 +41 +41 опасность
перегрева
1002.1 1002.0
15 19.06 С 9-12
{16}
19 км н/о +41.9 +4.0 10 +39 +39 очень
жарко
1002.3 1002.0
18 19.06 С 5-6
{16}
19 км н/о +36.9 +4.2 13 +34 +34 очень
жарко
1003.9 1004.0
21 19.06 СЗ 4 18 км н/о +32.4 +4.6 17 +30 +30 жарко 1003.8 1004.0 +31.8 +45.3
00 20.06 СЗ 6-7
{8}
19 км н/о +32.3 +4.3 17 +30 +30 жарко 1002.8 1003.0
03 20.06 СЗ 6-8
{8}
15 км н/о +31.7 +7.0 21 +30 +30 жарко 1003.5 1004.0
06 20.06 С 12-14
{14}
14 км н/о +40.8 +3.1 10 +38 +38 очень
жарко
1003.6 1004.0
09 20.06 С 16-21
{21}
800 м мгла {дымка} н/о +44.6 +1.1 7 +41 +41 опасность
перегрева
1003.0 1003.0
12 20.06 С 15-19
{22}
2400 м дым н/о +45.7 +1.8 7 +42 +42 опасность
перегрева
1002.1 1002.0
15 20.06 С 13-17
{20}
16 км н/о +42.3 +3.5 9 +39 +39 очень
жарко
1002.4 1002.0
18 20.06 СЗ 8-10
{20}
20 км н/о +38.2 +4.3 12 +35 +35 очень
жарко
1003.4 1003.0
21 20.06 СЗ 8 9000 м дым н/о +35.1 +3.8 14 +32 +32 жарко 1002.9 1003.0 +30.4 +46.1
00 21.06 С 8-10
{12}
20 км н/о +32.5 +4.5 17 +30 +30 жарко 1002.8 1003.0
03 21.06 СЗ 6-7
{10}
17 км н/о +30.7 +4.9 20 +29 +29 жарко 1003.7 1004.0
06 21.06 С 13-16
{16}
14 км н/о +39.6 +2.2 10 +36 +36 очень
жарко
1004.2 1004.0
09 21.06 С 13-17
{21}
5000 м дым н/о +43.6 +1.5 8 +40 +40 очень
жарко
1003.1 1003.0
12 21.06 С 14-19
{21}
5000 м дым н/о +43.5 -3.0 6 +40 +40 очень
жарко
1002.1 1002.0
15 21.06 С 12-15
{19}
3800 м дым н/о +40.9 +1.6 9 +37 +37 очень
жарко
1002.2 1002.0
18 21.06 СЗ 10-13
{19}
1800 м дым н/о +37.4 +2.5 11 +34 +34 очень
жарко
1003.7 1004.0
21 21.06 СЗ 6 3900 м дым н/о +33.6 +3.6 15 +31 +31 жарко 1003.2 1003.0 +29.8 +44.4
00 22.06 СЗ 3-4
{13}
4000 м дымка н/о +28.9 +5.1 22 +27 +27 жарко 1002.8 1003.0
03 22.06 СЗ 7-9
{9}
20 км н/о +29.4 +5.2 22 +28 +28 жарко 1003.2 1003.0
06 22.06 СЗ 13-17
{17}
7000 м дым н/о +37.3 +3.1 12 +34 +34 очень
жарко
1002.6 1003.0
09 22.06 СЗ 13-17
{21}
9000 м дым н/о +41.2 +2.4 9 +38 +38 очень
жарко
1001.6 1002.0
12 22.06 С 13-17
{21}
5000 м дым н/о +43.3 -0.3 7 +40 +40 очень
жарко
1000.1 1000.0
15 22.06 С 12-15
{17}
10 км н/о +40.5 +1.7 9 +37 +37 очень
жарко
999.8 1000.0
18 22.06 СЗ 9-14
{17}
2800 м дым н/о +36.6 +4.6 14 +34 +34 очень
жарко
1001.3 1001.0
21 22.06 СЗ 9 8000 м дым н/о +33.4 +5.3 17 +31 +31 жарко 1001.5 1002.0 +28.0 +43.6
00 23.06 СЗ 6-8
{14}
15 км н/о +29.5 +5.4 22 +28 +28 жарко 1001.4 1001.0
03 23.06 СЗ 8-9
{9}
18 км н/о +28.9 +5.9 23 +28 +28 жарко 1002.5 1003.0
06 23.06 СЗ 13-17
{17}
5000 м дым н/о +36.5 +4.8 14 +34 +34 очень
жарко
1002.6 1003.0
09 23.06 С 13-17
{17}
3500 м дым н/о +40.3 +4.8 11 +37 +37 очень
жарко
1001.5 1002.0
12 23.06 СЗ 13-17
{19}
1800 м дым н/о +41.0 +4.0 10 +38 +38 очень
жарко
999.9 1000.0
15 23.06 С 11-14
{17}
2900 м дым н/о +39.2 +1.3 9 +35 +35 очень
жарко
1000.0 1000.0
18 23.06 СЗ 6-8
{17}
2300 м дым н/о +35.5 -0.1 10 +32 +32 жарко 1001.3 1001.0
21 23.06 З 4 3100 м дым н/о +30.4 +1.6 16 +28 +28 жарко 1001.1 1001.0 +27.9 +41.8
00 24.06 СЗ 5-6
{8}
11 км н/о +28.1 +2.1 19 +26 +26 жарко 1001.1 1001.0
03 24.06 СЗ 4-5
{6}
14 км н/о +28.2 +2.5 19 +26 +26 жарко 1001.9 1002.0
06 24.06 СЗ 10-12
{14}
12 км н/о +37.8 +4.4 13 +35 +35 очень
жарко
1001.8 1002.0
09 24.06 СЗ 8-13
{15}
13 км н/о +41.8 +2.6 9 +38 +38 очень
жарко
1001.1 1001.0
12 24.06 СЗ 8-11
{15}
12 км н/о +43.5 +0.9 7 +40 +40 очень
жарко
999.7 1000.0
15 24.06 СЗ 7-10
{16}
15 км н/о +42.4 +3.2 9 +39 +39 очень
жарко
999.2 999.0
18 24.06 СЗ 5-7
{16}
19 км н/о +37.5 +2.4 11 +34 +34 очень
жарко
1000.4 1000.0
21 24.06 СЗ 4 16 км н/о +33.3 +4.3 16 +31 +31 жарко 1000.8 1001.0 +26.4 +44.1
00 25.06 СЗ 5-6
{7}
9000 м дым н/о +31.3 +5.7 20 +29 +29 жарко 1000.4 1000.0
03 25.06 СЗ 6-7
{7}
18 км н/о +30.2 +4.8 20 +28 +28 жарко 1001.4 1001.0
06 25.06 С 9-12
{12}
16 км н/о +39.3 +3.4 11 +36 +36 очень
жарко
1001.8 1002.0
09 25.06 С 7-11
{13}
17 км н/о +43.4 +2.9 9 +40 +40 очень
жарко
1000.4 1000.0
12 25.06 С 5-8
{13}
19 км н/о +45.5 +1.6 7 +42 +42 опасность
перегрева
998.6 999.0
15 25.06 С 6-7
{11}
18 км н/о +44.6 +1.4 7 +41 +41 опасность
перегрева
997.9 998.0
18 25.06 СЗ 6-8
{11}
19 км н/о +38.8 +2.7 11 +36 +36 очень
жарко
999.2 999.0

 

Местоположение метеостанции Sabriyah (Кувейт): широта 29.75 долгота 47.85 высота над уровнем моря 56 м.

В архиве по умолчанию представлена погода в Sabriyah за последнюю неделю. Архивные данные за месяц целиком и за предыдущие месяцы, начиная с января 2011 года, Вы можете получить, выбрав интересующий диапазон дат из раскрывающегося списка и нажав кнопку "Ввод!".


*Определитесь, кто Вы:
робот инопланетянин человек

Внимание! Время в таблицах - всемирное. Для получения местного времени необходимо прибавить поправку, которая в Sabriyah равна 3 ч.

Смотрите также архив погоды в соседних городах и на ближайших метеорологических станциях:

Погода в Jal Aliyah (Кувейт) (30 км)
Погода в Abdaly (Кувейт) (39 км)
Погода в Mitribah (Кувейт) (47 км)
Погода в Kuwait City (Кувейт) (51 км)
Погода в Al-Shuaiba (Кувейт) (51 км)
Погода в Jahra (Кувейт) (51 км)
Погода в Bubiyan (Кувейт) (51 км)
Погода в Experimental Farm (Кувейт) (52 км)
Погода в Failaka Island (Кувейт) (52 км)
Погода в Sulaibiya (Кувейт) (55 км)

Пояснения к столбцам:

Ветер - указаны скорость ветра в м/с - средняя за 10 мин, порывы в срок и между сроками (в фигурных скобках) и направление, откуда дует ветер: С - северный, СВ - северо-восточный, В - восточный, ЮВ - юго-восточный, Ю - южный, ЮЗ - юго-западный, З - западный, СЗ - северо-западный.
Видимость - горизонтальная дальность видимости в метрах или километрах. При видимости от 1 до 10 км при отсутствии осадков обычно наблюдается дымка, при ухудшении видимости до 1 км и менее - туман. В сухую погоду видимость может ухудшаться дымом, пылью или мглою.
Явления - указаны атмосферные явления, наблюдавшиеся в срок или в последний час перед сроком; фигурными скобками обозначены явления, наблюдавшиеся между сроками (за 1-3 часа до срока); квадратными скобками обозначены град или гололедные отложения с указанием их диаметра в мм.
Облачность - указаны через наклонную черту общая и нижняя облачность в баллах и высота нижней границы облаков в метрах; квадратными скобками обозначены формы облаков: Ci - перистые, Cs - перисто-слоистые, Cc - перисто-кучевые, Ac - высококучевые, As - высокослоистые, Sc - слоисто-кучевые, Ns - слоисто-дождевые, Cu - кучевые, Cb - кучево-дождевые. Подробнее классификацию облаков см. в Атласе облаков (PDF).
T - Температура воздуха - температура, измеренная на высоте 2 м над землей.
Td - Температура точки росы - температура, при понижении до которой содержащийся в воздухе водяной пар достигнет насыщения.
f - Относительная влажность воздуха - влажноcть воздуха, измеренная на высоте 2 м над землей.
Te - Эффективная температура - температура, которую ощущает одетый по сезону человек в тени. Характеристика душности погоды. При расчете учитывается влияние влажности воздуха и скорости ветра на теплоощущения человека.
Tes - Эффективная температура на солнце - температура, которую ощущает человек, с поправкой на солнечный нагрев. Характеристика знойности погоды. Зависит от высоты солнца над горизонтом, облачности и скорости ветра. Ночью, в пасмурную погоду, а также при ветре 12 м/с и более поправка равна нулю.
P - Атмосферное давление - приведенное к уровню моря атмосферное давление.
Po - Атмосферное давление - измеренное на уровне метеостанции атмосферное давление.
Tmin - Минимальная температура - минимум температуры воздуха на высоте 2 м над землей.
Tmax - Максимальная температура - максимум температуры воздуха на высоте 2 м над землей.
R - Количество осадков - Количество выпавших осадков за период времени, мм. При наведении курсора мыши на число - период времени, за который выпало указанное количество осадков.
R24 - Количество осадков - Количество выпавших осадков за 24 часа, мм.
S - Снежный покров - Высота снежного покрова, см. При наведении курсора мыши на число - состояние снежного покрова и степень покрытия местности в баллах.